Weather History for Nebraska City, NE

Change the Weather History Date:

Saturday, December 8, 2012

  Actual Average (KSDA) Record (KSDA)
Temperature  
Mean Temperature 32 °F -  
Max Temperature 40 °F 36 °F 60 °F (1984)
Min Temperature 24 °F 18 °F -8 °F (1976)
Degree Days  
Heating Degree Days 33    
Moisture  
Dew Point 29 °F    
Average Humidity 82    
Maximum Humidity 100    
Minimum Humidity 67    
Precipitation  
Precipitation 0.00 in - - ()
Sea Level Pressure  
Sea Level Pressure 29.94 in    
Wind  
Wind Speed 1 mph (SE)    
Max Wind Speed 9 mph    
Max Gust Speed -    
Visibility 8 miles    
Events      
Averages and records for this station are not official NWS values.
T = Trace of Precipitation, MM = Missing Value Source: NWS Daily Summary

Daily Weather History Graph

Daily Weather History Graph

Search for Another Location

Airport:

Trip Planner

Search our weather history database for the weather conditions in past years. The results will help you decide how hot, cold, wet, or windy it might be!

Date:

Astronomy

Dec. 08, 2012 Rise Set
Actual Time 7:34 AM CST 4:56 PM CST
Civil Twilight 7:04 AM CST 5:26 PM CST
Nautical Twilight 6:30 AM CST 6:01 PM CST
Astronomical Twilight 5:56 AM CST 6:34 PM CST
Moon 1:59 AM CST (12/8) 1:27 PM CST (12/8)
Length of Visible Light 10h 22m
Length of Day
9h 21m
Waning Crescent, 28% of the Moon is Illuminated
Dec 8
Waning Crescent
Dec 13
New
Dec 19
First Quarter
Dec 28
Full
Jan 4
Last Quarter

Hourly Weather History & Observations

Time (CST) Temp. Windchill Dew Point Humidity Pressure Visibility Wind Dir Wind Speed Gust Speed Precip Events Conditions
12:15 AM 33.1 °F - 27.0 °F 78% 29.96 in 10.0 mi Calm Calm - N/A   Clear
12:35 AM 33.8 °F - 27.0 °F 76% 29.96 in 10.0 mi Calm Calm - N/A   Clear
12:55 AM 32.4 °F - 26.4 °F 79% 29.96 in 10.0 mi Calm Calm - N/A   Clear
1:15 AM 32.4 °F - 26.1 °F 78% 29.96 in 10.0 mi Calm Calm - N/A   Clear
1:35 AM 31.1 °F - 26.1 °F 82% 29.96 in 10.0 mi Calm Calm - N/A   Clear
1:55 AM 30.6 °F - 25.3 °F 81% 29.97 in 10.0 mi Calm Calm - N/A   Clear
2:15 AM 30.0 °F - 24.8 °F 81% 29.97 in 10.0 mi Calm Calm - N/A   Clear
2:35 AM 29.7 °F - 24.8 °F 82% 29.98 in 10.0 mi Calm Calm - N/A   Clear
2:55 AM 28.4 °F - 24.4 °F 85% 29.98 in 10.0 mi Calm Calm - N/A   Clear
3:15 AM 27.9 °F - 24.4 °F 87% 29.98 in 10.0 mi Calm Calm - N/A   Clear
3:35 AM 27.5 °F - 24.6 °F 89% 29.98 in 10.0 mi Calm Calm - N/A   Clear
3:55 AM 27.5 °F - 24.8 °F 90% 29.98 in 10.0 mi Calm Calm - N/A   Scattered Clouds
4:15 AM 28.2 °F - 25.9 °F 91% 29.98 in 10.0 mi Calm Calm - N/A   Mostly Cloudy
4:35 AM 27.5 °F - 26.1 °F 94% 29.98 in 7.0 mi Calm Calm - N/A   Scattered Clouds
4:55 AM 27.0 °F - 26.1 °F 96% 29.98 in 7.0 mi Calm Calm - N/A   Clear
5:15 AM 26.2 °F - 25.5 °F 97% 29.98 in 7.0 mi Calm Calm - N/A   Clear
5:35 AM 26.1 °F - 25.5 °F 98% 29.98 in 5.0 mi Calm Calm - N/A   Clear
6:15 AM 24.6 °F - 24.4 °F 99% 29.98 in 4.0 mi Calm Calm - N/A   Clear
6:35 AM 24.4 °F - 24.3 °F 99% 29.98 in 4.0 mi Calm Calm - N/A   Clear
6:55 AM 25.2 °F - 25.2 °F 100% 29.99 in 4.0 mi Calm Calm - N/A   Clear
7:15 AM 24.4 °F - 24.3 °F 99% 29.98 in 3.0 mi Calm Calm - N/A   Clear
7:35 AM 25.5 °F - 25.5 °F 100% 29.99 in 4.0 mi Calm Calm - N/A   Clear
7:55 AM 25.2 °F - 25.2 °F 100% 29.99 in 2.5 mi Calm Calm - N/A   Clear
8:15 AM 25.7 °F - 25.7 °F 100% 30.00 in 2.5 mi Calm Calm - N/A   Scattered Clouds
8:35 AM 27.7 °F - 27.7 °F 100% 29.99 in 3.0 mi Calm Calm - N/A   Mostly Cloudy
8:55 AM 29.3 °F - 29.3 °F 100% 30.00 in 4.0 mi Calm Calm - N/A   Scattered Clouds
9:15 AM 30.4 °F - 30.2 °F 99% 30.00 in 5.0 mi Calm Calm - N/A   Scattered Clouds
9:35 AM 31.1 °F - 29.7 °F 94% 30.01 in 5.0 mi Calm Calm - N/A   Scattered Clouds
9:55 AM 32.0 °F - 30.0 °F 92% 30.01 in 7.0 mi Calm Calm - N/A   Scattered Clouds
10:15 AM 32.2 °F - 29.8 °F 91% 30.01 in 7.0 mi Calm Calm - N/A   Clear
10:35 AM 33.4 °F - 29.8 °F 87% 30.01 in 7.0 mi Calm Calm - N/A   Scattered Clouds
10:55 AM 35.2 °F - 29.3 °F 79% 29.99 in 10.0 mi Calm Calm - N/A   Clear
11:15 AM 37.0 °F - 29.1 °F 73% 29.99 in 10.0 mi Calm Calm - N/A   Mostly Cloudy
11:35 AM 36.7 °F - 28.4 °F 72% 29.98 in 10.0 mi Calm Calm - N/A   Overcast
11:55 AM 36.5 °F - 28.6 °F 73% 29.97 in 10.0 mi Calm Calm - N/A   Overcast
12:15 PM 36.1 °F - 28.4 °F 73% 29.97 in 10.0 mi Calm Calm - N/A   Overcast
12:35 PM 36.7 °F - 29.1 °F 74% 29.96 in 10.0 mi Calm Calm - N/A   Overcast
12:55 PM 37.4 °F - 29.5 °F 73% 29.95 in 10.0 mi Calm Calm - N/A   Overcast
1:15 PM 38.1 °F - 29.8 °F 72% 29.94 in 10.0 mi Calm Calm - N/A   Mostly Cloudy
1:35 PM 38.8 °F 32.6 °F 29.7 °F 70% 29.93 in 10.0 mi SE 9.2 mph - N/A   Scattered Clouds
1:55 PM 39.0 °F - 29.7 °F 69% 29.92 in 10.0 mi Calm Calm - N/A   Mostly Cloudy
2:15 PM 39.4 °F - 29.8 °F 69% 29.91 in 10.0 mi Calm Calm - N/A   Overcast
2:35 PM 39.6 °F 33.5 °F 29.8 °F 68% 29.90 in 10.0 mi SE 9.2 mph - N/A   Overcast
2:55 PM 39.9 °F 35.1 °F 30.0 °F 68% 29.90 in 10.0 mi SE 6.9 mph - N/A   Mostly Cloudy
3:15 PM 40.1 °F 34.1 °F 30.2 °F 68% 29.90 in 10.0 mi ESE 9.2 mph - N/A   Overcast
3:35 PM 39.9 °F - 30.7 °F 70% 29.89 in 10.0 mi Calm Calm - N/A   Overcast
3:55 PM 40.1 °F 34.1 °F 30.7 °F 69% 29.89 in 10.0 mi SE 9.2 mph - N/A   Overcast
4:15 PM 40.1 °F - 30.6 °F 69% 29.88 in 10.0 mi Calm Calm - N/A   Mostly Cloudy
4:35 PM 39.7 °F - 30.2 °F 69% 29.88 in 10.0 mi Calm Calm - N/A   Overcast
4:55 PM 40.1 °F 34.7 °F 29.8 °F 67% 29.87 in 10.0 mi SE 8.1 mph - N/A   Overcast
5:15 PM 39.6 °F - 29.3 °F 67% 29.88 in 10.0 mi Calm Calm - N/A   Mostly Cloudy
5:35 PM 39.6 °F 37.4 °F 29.3 °F 67% 29.87 in 10.0 mi SE 3.5 mph - N/A   Mostly Cloudy
5:55 PM 39.4 °F - 29.3 °F 67% 29.88 in 10.0 mi Calm Calm - N/A   Overcast
6:15 PM 39.4 °F - 29.5 °F 68% 29.89 in 10.0 mi Calm Calm - N/A   Overcast
6:35 PM 39.2 °F - 29.8 °F 69% 29.90 in 10.0 mi Calm Calm - N/A   Overcast
6:55 PM 39.2 °F - 30.7 °F 72% 29.89 in 10.0 mi Calm Calm - N/A   Overcast
7:15 PM 39.0 °F 32.8 °F 31.1 °F 73% 29.89 in 10.0 mi SE 9.2 mph - N/A   Overcast
7:55 PM 36.9 °F - 31.6 °F 81% 29.88 in 10.0 mi Calm Calm - N/A   Mostly Cloudy
8:15 PM 36.5 °F 31.0 °F 32.0 °F 84% 29.88 in 7.0 mi ESE 6.9 mph - N/A   Scattered Clouds
8:35 PM 36.7 °F - 32.0 °F 83% 29.89 in 7.0 mi Calm Calm - N/A   Mostly Cloudy
9:15 PM 36.3 °F - 32.4 °F 86% 29.88 in 7.0 mi Calm Calm - N/A   Overcast
9:35 PM 36.9 °F - 32.9 °F 86% 29.87 in 7.0 mi Calm Calm - N/A   Overcast
9:55 PM 37.0 °F - 33.1 °F 86% 29.88 in 7.0 mi Calm Calm - N/A   Overcast
10:15 PM 37.4 °F - 33.1 °F 84% 29.89 in 7.0 mi Calm Calm - N/A   Overcast
10:35 PM 37.4 °F - 33.3 °F 85% 29.89 in 7.0 mi Calm Calm - N/A   Overcast
10:55 PM 37.8 °F - 33.4 °F 84% 29.89 in 7.0 mi Calm Calm - N/A   Overcast
11:15 PM 37.9 °F - 33.3 °F 83% 29.88 in 7.0 mi Calm Calm - N/A   Overcast
11:35 PM 37.9 °F - 33.3 °F 83% 29.87 in 7.0 mi Calm Calm - N/A   Overcast
11:55 PM 37.9 °F 33.5 °F 33.3 °F 83% 29.87 in 7.0 mi SE 5.8 mph - N/A   Overcast